Location: Prosper
(33.2362°N, 96.8011°W)
Time: 00:53:42
(UTC+00:00)

DMSP B5D2-2 - Pass Details

Date: 03 December 2021
Orbit: 790 x 805 km, 98.3° (Epoch: 17 January)

Event Time Altitude Azimuth Distance (km) Brightness Sun altitude
Rises 12:17:37 0° 160° (SSE) 3,285 7.9 -11.8°
Reaches altitude 10° 12:19:57 10° 158° (SSE) 2,356 7.1 -11.4°
Maximum altitude 12:25:07 71° 76° (ENE) 840 4.4 -10.4°
Drops below altitude 10° 12:30:18 10° 353° (N) 2,362 6.3 -9.3°
Sets 12:32:38 0° 351° (N) 3,293 7.0 -8.9°
